Regional Weather Roundup
Issued by NWS Newport/Morehead, NC

Current Version | Previous Version | Text Only | Print | Product List | Glossary Off
Versions: 1 2 3 4 5 6 7 8 9 10 11 12 13 14 15 16 17 18 19 20 21 22 23 24 25 26 27 28 29 30 31 32 33 34 35 36 37 38 39 40 41 42 43 44 45 46 47 48 49 50
000 ASUS42 KMHX 181210 RWRMHX WEATHER ROUNDUP FOR EASTERN NORTH CAROLINA NATIONAL WEATHER SERVICE NEWPORT/MOREHEAD CITY NC 800 AM EDT THU SEP 18 2014 NOTE: "FAIR" INDICATES FEW OR NO CLOUDS BELOW 12,000 FEET WITH NO SIGNIFICANT WEATHER AND/OR OBSTRUCTIONS TO VISIBILITY NCZ015>017-031-032-045>047-102-103-181300- NORTH COAST CITY SKY/WX TMP DP RH WIND PRES REMARKS EDENTON PTSUNNY 63 60 92 N3 29.99R ELIZABETH CITY SUNNY 67 61 81 N6 29.98R KITTY HAWK PTSUNNY 70 57 63 NE8 29.96R MANTEO SUNNY 70 58 65 NE10 29.97R $$ NCZ045>047-081-094-103-104-181300- CENTRAL COAST CITY SKY/WX TMP DP RH WIND PRES REMARKS FRISCO SUNNY 70 61 73 NE8 29.94R SWANQUARTER N/A 68 N/A N/A N5 29.91S $$ NCZ095-097-098-100-101-181300- SOUTHERN COAST CITY SKY/WX TMP DP RH WIND PRES REMARKS BEAUFORT SUNNY 72 65 78 NE5 29.94R CEDAR ISLAND N/A 73 N/A N/A NE14G20 29.97S JACKSONVILLE MOSUNNY 67 63 87 N3 29.95R NEWPORT NOT AVBL PINEY ISLAND SUNNY 76 63 64 NE13 29.94R WILMINGTON MOSUNNY 68 65 90 NE6 29.94R $$ NCZ011>013-027>030-043-044-078>080-089-090>093-098-181300- COASTAL PLAIN CITY SKY/WX TMP DP RH WIND PRES REMARKS AHOSKIE SUNNY 58 57 96 CALM 29.99S CLINTON SUNNY 64 64 97 CALM 29.97R ELIZABETHTOWN SUNNY 64 64 100 CALM 29.96R FOG GOLDSBORO SUNNY 63 63 98 CALM 29.97R GREENVILLE MOSUNNY 63 61 94 CALM 30.00R FOG HAVELOCK MOSUNNY 70 65 84 NE9 29.96R KENANSVILLE MOSUNNY 64 62 94 N3 29.98R KINSTON SUNNY 63 63 100 N3 29.99R FOG NEW BERN PTSUNNY 68 63 84 NE6 29.97R RICHLANDS PTSUNNY 64 61 88 N7 29.96R ROANOKE RAPIDS NOT AVBL ROCKY MOUNT MOSUNNY 63 60 90 NE3 29.99R WASHINGTON MOSUNNY 62 61 96 CALM 29.98R WHITEVILLE PTSUNNY 67 64 91 NE5 29.94R $$ AMZ130-135-150-152-154-156-158-170-250-252-270-ANZ085-086-088-633-658-670-181300- MARINE OBSERVATIONS STATION/POSITION TIME TEMP WIND PRES WAVE SWELL AIR SEA DIR/SP/G HT/PER HT/PER (UTC) (F) (DEG/KT/KT) (MB) (FT/S) (FT/S) CHESAPEAKE LIGHT 1100 70 30/ 13/ 14 1015.4 BUOY 44014 1200 71 77 20/ 16/ 21 1014.2 4/10 3/10 DUCK 1200 71 75 50/ 13/ 15 1014.3 2E DUCK 1200 N/A 4/13 2/13 OREGON INLET 1200 72 74 20/ 11/ 15 1014.3 BUOY 44095 1200 76 N/A 5/13 3/13 20E OREGON INLET NOT AVBL HATTERAS CG 1200 73 77 30/ 8/ 13 1014.2 DIAMOND BUOY 1200 76 10/ 16/ 19 1013.0 6/ 8 3/ 8 CAPE LOOKOUT 1100 75 40/ 16/ 17 1013.0 BEAUFORT LAB 1200 71 79 40/ 5/ 7 1013.2 30 SE NEW RIVER 1100 78 82 50/ 16/ 17 1012.9 5 SE WRIGHTSVILL 1100 71 81 30/ 16/ 17 N/A BUOY 41002 1102 78 82 340/ 10/ 12 1012.4 4/10 3/10 BUOY 41004 1200 79 83 10/ 6/ 6 1012.6 4/11 3/11 $$

USA.gov is the U.S. government's official web portal to all federal, state and local government web resources and services.